This is the latest recevied weather packets stored in our database for station/object DJ2DS-13. If no packets are shown the sender has not sent any weather packets the latest 10 day(s).
| Time | Temp. | Humidity | Pressure | Rain* | Wind** | Luminosity | Snow |
|---|---|---|---|---|---|---|---|
| 1778092414 | 10° C | 79% | 1009.5 hPa | 0 mm | - | 46 W/m² | - |
| 1778092111 | 10° C | 79% | 1009.5 hPa | 0 mm | - | 55 W/m² | - |
| 1778091811 | 10.56° C | 79% | 1009.4 hPa | 0 mm | - | 62 W/m² | - |
| 1778091510 | 10° C | 79% | 1009.4 hPa | 0 mm | - | 69 W/m² | - |
| 1778091208 | 10.56° C | 78% | 1009.4 hPa | 0 mm | - | 70 W/m² | - |
| 1778090910 | 10.56° C | 78% | 1009.3 hPa | 0 mm | - | 76 W/m² | - |
| 1778090610 | 10.56° C | 77% | 1009.3 hPa | 0 mm | - | 74 W/m² | - |
| 1778090309 | 10.56° C | 77% | 1009.2 hPa | 0 mm | - | 72 W/m² | - |
| 1778090009 | 10.56° C | 76% | 1009.2 hPa | 0 mm | - | 70 W/m² | - |
| 1778089709 | 10.56° C | 77% | 1009.2 hPa | 0 mm | - | 111 W/m² | - |
| 1778089409 | 10.56° C | 76% | 1009.1 hPa | 0 mm | - | 141 W/m² | - |
| 1778089109 | 10.56° C | 76% | 1009 hPa | 0 mm | - | 114 W/m² | - |
| 1778088808 | 11.11° C | 75% | 1009 hPa | 0 mm | - | 107 W/m² | - |
| 1778088508 | 11.11° C | 75% | 1009 hPa | 0 mm | - | 113 W/m² | - |
| 1778088205 | 11.67° C | 73% | 1009 hPa | 0 mm | - | 137 W/m² | - |
| 1778087906 | 11.67° C | 74% | 1008.9 hPa | 0 mm | - | 162 W/m² | - |
| 1778087606 | 11.67° C | 72% | 1008.9 hPa | 0 mm | - | 223 W/m² | - |
| 1778087300 | 12.22° C | 73% | 1009 hPa | 0 mm | - | 260 W/m² | - |
| 1778087001 | 12.22° C | 72% | 1008.9 hPa | 0 mm | - | 273 W/m² | - |
| 1778086700 | 12.22° C | 72% | 1008.9 hPa | 0 mm | - | 241 W/m² | - |
| 1778086399 | 12.22° C | 71% | 1008.8 hPa | 0 mm | - | 310 W/m² | - |
| 1778086099 | 12.78° C | 72% | 1008.9 hPa | 0 mm | - | 317 W/m² | - |
| 1778085798 | 12.78° C | 71% | 1008.7 hPa | 0 mm | - | 343 W/m² | - |
| 1778085495 | 12.22° C | 73% | 1008.8 hPa | 0 mm | - | 364 W/m² | - |
| 1778085195 | 12.22° C | 72% | 1008.9 hPa | 0 mm | - | 324 W/m² | - |
* Rain latest hour (hover to see other rain measurements)
** Current wind speed in m/s (hover to see current wind gust speed)